Location: Memphis International Airport Police
(35.0443°N, 89.9815°W)
Time: 18:21:27
(UTC+00:00)

Cosmos 1655 Rocket - Pass Details

Date: 26 September 2023
Orbit: 970 x 1006 km, 82.9° (Epoch: 10 December)

Event Time Altitude Azimuth Distance (km) Brightness Sun altitude
Exits shadow 09:45:26 41° 193° (SSW) 1,410 4.5 -26.1°
Maximum altitude 09:47:51 82° 276° (W) 1,018 3.9 -25.6°
Drops below altitude 10° 09:54:17 10° 4° (N) 2,787 6.6 -24.4°
Sets 09:56:49 0° 6° (N) 3,740 7.3 -23.9°
